Weather History for Fort Stockton, TX

Change the Weather History Date:

Friday, August 23, 2013

  Actual Average Record
Temperature  
Mean Temperature 80 °F -  
Max Temperature 90 °F 89 °F 102 °F (2010)
Min Temperature 70 °F 68 °F 66 °F (1998)
Cooling Degree Days 15    
Growing Degree Days 30 (Base 50)    
Moisture  
Dew Point 59 °F    
Average Humidity 49    
Maximum Humidity 71    
Minimum Humidity 32    
Precipitation  
Precipitation 0.00 in - - ()
Sea Level Pressure  
Sea Level Pressure 29.92 in    
Wind  
Wind Speed 10 mph (SSE)    
Max Wind Speed 18 mph    
Max Gust Speed 28 mph    
Visibility 10 miles    
Events      
Averages and records for this station are not official NWS values.
T = Trace of Precipitation, MM = Missing Value Source: NWS Daily Summary

Daily Weather History Graph

Daily Weather History Graph

Search for Another Location

Airport:

Trip Planner

Search our weather history database for the weather conditions in past years. The results will help you decide how hot, cold, wet, or windy it might be!

Date:

Astronomy

Aug. 23, 2013 Rise Set
Actual Time 7:22 AM CDT 8:25 PM CDT
Civil Twilight 6:57 AM CDT 8:49 PM CDT
Nautical Twilight 6:28 AM CDT 9:19 PM CDT
Astronomical Twilight 5:57 AM CDT 9:49 PM CDT
Moon 10:03 PM CDT (8/23) 10:04 AM CDT (8/23)
Length of Visible Light 13h 52m
Length of Day
13h 02m
Waning Gibbous, 91% of the Moon is Illuminated
Aug 23
Waning Gibbous
Aug 28
Last Quarter
Sep 5
New
Sep 12
First Quarter
Sep 19
Full

Hourly Weather History & Observations

Time (CDT) Temp. Heat Index Dew Point Humidity Pressure Visibility Wind Dir Wind Speed Gust Speed Precip Events Conditions
12:53 AM 78.1 °F - 59.0 °F 52% 29.92 in 10.0 mi SSE 11.5 mph - N/A   Clear
1:53 AM 77.0 °F - 60.1 °F 56% 29.92 in 10.0 mi SSE 10.4 mph - N/A   Clear
2:53 AM 75.9 °F - 60.1 °F 58% 29.91 in 10.0 mi SSE 6.9 mph - N/A   Clear
3:53 AM 75.9 °F - 60.1 °F 58% 29.91 in 10.0 mi South 8.1 mph - N/A   Clear
4:53 AM 73.0 °F - 60.1 °F 64% 29.91 in 10.0 mi SSE 4.6 mph - N/A   Clear
5:53 AM 73.0 °F - 60.1 °F 64% 29.92 in 10.0 mi SSE 6.9 mph - N/A   Clear
6:53 AM 70.0 °F - 59.0 °F 68% 29.93 in 10.0 mi SSE 6.9 mph - N/A   Clear
7:53 AM 70.0 °F - 60.1 °F 71% 29.95 in 10.0 mi SSE 8.1 mph - N/A   Clear
8:53 AM 75.0 °F - 61.0 °F 62% 29.96 in 10.0 mi SSE 9.2 mph - N/A   Clear
9:53 AM 81.0 °F 81.7 °F 61.0 °F 50% 29.96 in 10.0 mi SSE 11.5 mph - N/A   Clear
10:53 AM 84.9 °F 84.4 °F 59.0 °F 41% 29.96 in 10.0 mi SSE 9.2 mph - N/A   Clear
12:53 PM 86.0 °F 85.4 °F 59.0 °F 40% 29.95 in 10.0 mi SE 18.4 mph 25.3 mph N/A   Scattered Clouds
1:53 PM 90.0 °F 88.8 °F 57.9 °F 34% 29.93 in 10.0 mi SSE 15.0 mph 23.0 mph N/A   Clear
2:53 PM 89.1 °F 88.0 °F 57.9 °F 35% 29.92 in 10.0 mi South 16.1 mph 27.6 mph N/A   Partly Cloudy
3:53 PM 90.0 °F 88.6 °F 57.0 °F 33% 29.89 in 10.0 mi South 16.1 mph 23.0 mph N/A   Scattered Clouds
4:53 PM 88.0 °F 86.1 °F 55.0 °F 32% 29.88 in 10.0 mi SSE 12.7 mph 21.9 mph N/A   Clear
5:53 PM 88.0 °F 86.5 °F 55.9 °F 34% 29.88 in 10.0 mi South 13.8 mph 20.7 mph N/A   Scattered Clouds
6:53 PM 86.0 °F 85.0 °F 57.9 °F 38% 29.88 in 10.0 mi SSE 13.8 mph 18.4 mph N/A   Clear
7:53 PM 84.0 °F 83.5 °F 57.9 °F 41% 29.88 in 10.0 mi SE 11.5 mph - N/A   Clear
8:53 PM 82.9 °F 82.8 °F 59.0 °F 44% 29.88 in 10.0 mi SE 10.4 mph - N/A   Clear
9:53 PM 81.0 °F 81.6 °F 60.1 °F 49% 29.91 in 10.0 mi SE 11.5 mph - N/A   Clear
10:53 PM 79.0 °F - 61.0 °F 54% 29.93 in 10.0 mi ESE 9.2 mph - N/A   Clear
11:53 PM 77.0 °F - 61.0 °F 58% 30.08 in 10.0 mi SE 8.1 mph - N/A   Clear